Weather History for Elefsis, Greece

Change the Weather History Date:

Monday, September 10, 2012

  Actual Average Record
Temperature  
Mean Temperature 78 °F -  
Max Temperature 86 °F 78 °F 93 °F (1997)
Min Temperature 69 °F 62 °F 60 °F (2007)
Cooling Degree Days 12    
Growing Degree Days 28 (Base 50)    
Moisture  
Dew Point 48 °F    
Average Humidity 35    
Maximum Humidity 47    
Minimum Humidity 25    
Precipitation  
Precipitation 0.00 in - - ()
Sea Level Pressure  
Sea Level Pressure 30.02 in    
Wind  
Wind Speed 11 mph ()    
Max Wind Speed 20 mph    
Max Gust Speed 32 mph    
Visibility 6.2 miles    
Events      
Averages and records for this station are not official NWS values.
T = Trace of Precipitation, MM = Missing Value Source: Averaged Metar Reports

Daily Weather History Graph

Daily Weather History Graph

Search for Another Location

Airport:

Trip Planner

Search our weather history database for the weather conditions in past years. The results will help you decide how hot, cold, wet, or windy it might be!

Date:

Astronomy

Sep. 10, 2012 Rise Set
Actual Time 7:03 AM EEST 7:41 PM EEST
Civil Twilight 6:36 AM EEST 8:07 PM EEST
Nautical Twilight 6:05 AM EEST 8:39 PM EEST
Astronomical Twilight 5:33 AM EEST 9:11 PM EEST
Moon 1:11 AM EEST (9/10) 3:53 PM EEST (9/10)
Length of Visible Light 13h 30m
Length of Day
12h 37m
Waning Crescent, 33% of the Moon is Illuminated
Sep 10
Waning Crescent
Sep 16
New
Sep 22
First Quarter
Sep 30
Full
Oct 8
Last Quarter

Hourly Weather History & Observations

Time (EEST) Temp. Dew Point Humidity Pressure Visibility Wind Dir Wind Speed Gust Speed Precip Events Conditions
12:50 AM 73.4 °F 42.8 °F 33% 29.98 in - NNW 9.2 mph - N/A   Clear
1:50 AM 73.4 °F 42.8 °F 33% 29.98 in - NNW 11.5 mph - N/A   Clear
2:50 AM 71.6 °F 42.8 °F 35% 29.98 in - NNW 11.5 mph - N/A   Clear
3:50 AM 71.6 °F 42.8 °F 35% 29.98 in - NNW 11.5 mph - N/A   Clear
4:50 AM 71.6 °F 44.6 °F 38% 29.98 in - NNW 11.5 mph - N/A   Clear
5:50 AM 75.2 °F 46.4 °F 36% 30.01 in - North 6.9 mph - N/A   Clear
6:20 AM 69.8 °F 48.2 °F 46% 30.01 in - NW 8.1 mph - N/A   Clear
6:50 AM 73.4 °F 50.0 °F 44% 30.01 in - NW 10.4 mph - N/A   Clear
7:20 AM 73.4 °F 51.8 °F 47% 30.01 in - NW 8.1 mph - N/A   Clear
7:50 AM 73.4 °F 51.8 °F 47% 30.01 in - Calm Calm - N/A   Clear
8:20 AM 77.0 °F 53.6 °F 44% 30.01 in - NNW 5.8 mph - N/A   Clear
8:50 AM 78.8 °F 53.6 °F 42% 30.01 in - NNW 5.8 mph - N/A   Clear
9:50 AM 80.6 °F 50.0 °F 34% 30.04 in - North 11.5 mph - N/A   Clear
10:20 AM 80.6 °F 50.0 °F 34% 30.04 in - North 12.7 mph - N/A   Clear
10:50 AM 82.4 °F 48.2 °F 30% 30.04 in - North 12.7 mph - N/A   Clear
11:20 AM 82.4 °F 46.4 °F 28% 30.04 in - NNW 12.7 mph 24.2 mph N/A   Clear
11:50 AM 84.2 °F 46.4 °F 27% 30.04 in - NNW 17.3 mph 28.8 mph N/A   Clear
12:20 PM 84.2 °F 46.4 °F 27% 30.04 in - North 15.0 mph 28.8 mph N/A   Clear
12:50 PM 84.2 °F 48.2 °F 29% 30.04 in - North 16.1 mph 27.6 mph N/A   Clear
1:20 PM 84.2 °F 46.4 °F 27% 30.04 in - North 16.1 mph 29.9 mph N/A   Clear
1:50 PM 84.2 °F 48.2 °F 29% 30.04 in - North 17.3 mph 32.2 mph N/A   Clear
2:20 PM 86.0 °F 46.4 °F 25% 30.04 in - North 17.3 mph 28.8 mph N/A   Clear
2:50 PM 84.2 °F 48.2 °F 29% 30.04 in 6.2 mi North 19.6 mph 32.2 mph N/A   Partly Cloudy
3:20 PM 84.2 °F 44.6 °F 25% 30.04 in 6.2 mi North 17.3 mph 29.9 mph N/A   Partly Cloudy
3:50 PM 84.2 °F 44.6 °F 25% 30.01 in 6.2 mi North 17.3 mph 29.9 mph N/A   Partly Cloudy
4:20 PM 84.2 °F 44.6 °F 25% 30.01 in 6.2 mi NNW 17.3 mph 31.1 mph N/A   Scattered Clouds
4:50 PM 84.2 °F 44.6 °F 25% 30.04 in 6.2 mi NNW 17.3 mph 28.8 mph N/A   Scattered Clouds
5:20 PM 82.4 °F 46.4 °F 28% 30.04 in 6.2 mi NNW 17.3 mph 29.9 mph N/A   Scattered Clouds
5:50 PM 80.6 °F 46.4 °F 30% 30.01 in 6.2 mi North 17.3 mph 29.9 mph N/A   Scattered Clouds
6:20 PM 80.6 °F 46.4 °F 30% 30.01 in 6.2 mi North 16.1 mph 28.8 mph N/A   Scattered Clouds
6:50 PM 78.8 °F 48.2 °F 34% 30.04 in 6.2 mi North 13.8 mph 25.3 mph N/A   Partly Cloudy
7:20 PM 77.0 °F 48.2 °F 36% 30.04 in 6.2 mi North 12.7 mph 24.2 mph N/A   Partly Cloudy
7:50 PM 77.0 °F 48.2 °F 36% 30.04 in 6.2 mi North 11.5 mph - N/A   Partly Cloudy
8:20 PM 77.0 °F 48.2 °F 36% 30.04 in 6.2 mi North 10.4 mph - N/A   Partly Cloudy
8:50 PM 75.2 °F 50.0 °F 41% 30.04 in 6.2 mi NNW 9.2 mph - N/A   Partly Cloudy
9:20 PM 75.2 °F 51.8 °F 44% 30.04 in 6.2 mi North 6.9 mph - N/A   Partly Cloudy
9:50 PM 75.2 °F 51.8 °F 44% 30.04 in - NNW 8.1 mph - N/A   Clear
10:50 PM 75.2 °F 50.0 °F 41% 30.04 in - NNW 17.3 mph - N/A   Clear
11:20 PM 75.2 °F 50.0 °F 41% 30.04 in - NNW 17.3 mph - N/A   Clear
11:50 PM 73.4 °F 50.0 °F 44% 30.04 in - NNW 11.5 mph - N/A   Clear